Tracking 19562 objects as of 22-Mar-2019
HD Live streaming from Space Station
objects crossing your sky now

GOES 9

Track GOES 9 now!
GOES 9 is classified as:


NORAD ID: 23581
Int'l Code: 1995-025A
Perigee: 36,195.2 km
Apogee: 36,228.7 km
Inclination: 11.6 °
Period: 1,457.5 minutes
Semi major axis: 42582 km
RCS: 15.0119 m2 (large)
Launch date: May 23, 1995
Source: United States (US)
Launch site: AIR FORCE EASTERN TEST RANGE (AFETR)
aabbcc
Your satellite tracking list
Your tracking list is empty




NASA's NSSDC Master Catalog

Two Line Element Set (TLE):
1 23581U 95025A   19081.45569831  .00000023  00000-0  00000+0 0  9994
2 23581  11.5994  32.9392 0003938 351.3929  17.7681  0.98798218 86638
Source of the keplerian elements: AFSPC